Погода Каменск-Шахтинский

Погода Каменск-Шахтинский : погода сейчас, прогноз погоды и архив. Всё, что Вы хотите узнать о погоде Каменск-Шахтинский!

Хотите узнать прогноз погоды Каменск-Шахтинский? Тогда Вам сюда: Погода Каменск-Шахтинский

Поиск расширенной информации на нашем сайте:

Полезная информация: Прочистка канализации в загородном доме "Servis 24".

Другие новости

Новости СМИ2

Главная страница сайта

Новости сайта

03.07.2017

Напоминаем, что на нашем специализированном сайте Метеоцентр.Азия вы можете получить высокодетализированные автоматические прогнозы погоды по пунктам России, СНГ и мира в авиационном формате (включающие направление и скорость ветра, видимость, явления погоды, количество и форму облачности, нижнюю и верхнюю границу облачности).

Рекомендуем: Дешевая недвижимость в Теплице свой уголок в Европе

Погода Каменск-Шахтинский - сегодня

Время (UTC), дата Ветер
(°,м/с) 
Видим.   Явления Облачность Т
(°С)
Тd
(°С)
f(%) Тe
(°С)
Pmin
(гПа)
dP
(гПа)
Po
(мм)
O2
(г/м3)
Тmin Tmax R s Состояние
почвы
21 21.06.18 тихо ()   20000 м    ясно 
+20.6 +8.6 46 +21  1014  0.6  755  282           
00 22.06.18 тихо ()   20000 м    ясно 
+16.6 +12 74 +20  1014.3  0.2  756  285           
03 22.06.18 тихо ()   20000 м    ясно 
+16.7 +10.5 67 +18  1014.5  0.2  756  285  +13.4        сухая 
06 22.06.18 110 (В) 20000 м    ясно 
+27.7 +9 31 +28  1013.6  -0.6  755  275           
09 22.06.18 100 (В) 20000 м    ясно 
+32 +5.7 19 +32  1012.5  -1  755  271           
12 22.06.18 070 (В) 20000 м    3/0 верхняя 
[Ci fib]
+33.8 +4.7 16 +34  1010.9  -1.6  753  269           
15 22.06.18 120 (ЮВ) 20000 м    ясно 
+33.5 +5.1 17 +34  1009.4  -1.5  752  269    +34.4       
18 22.06.18 130 (ЮВ) 20000 м    ясно 
+26.5 +8 31 +27  1009.8  0.3  752  275           
21 22.06.18 тихо ()   20000 м    ясно 
+21.1 +8.9 46 +21  1010.7  0.7  753  280           
00 23.06.18 тихо ()   20000 м    ясно 
+17.4 +7.9 54 +17  1010.5  0.7  753  284           
03 23.06.18 тихо ()   20000 м    ясно 
+19.6 +9.5 52 +20  1010.6  0.1  753  281  +14.9        сухая 
06 23.06.18 090 (В) 20000 м    3/0 верхняя 
[Ci fib]
+31 +9.2 26 +31  1009.8  -0.5  752  271           
09 23.06.18 100 (В) 5{11}  20000 м    8/0 верхняя 
[Ci fib]
+35.3 +3.3 14 +35  1008.8  -0.9  752  268           
12 23.06.18 140 (ЮВ) 6-11{12}  20000 м    8/0 верхняя 
[Ci fib]
+35.2 +2.6 13 +35  1007.3  -1.5  751  268           
15 23.06.18 120 (ЮВ) 5{12}  20000 м    9/0 верхняя 
[Ci fib]
+33.8 +2.4 14 +34  1006.5  -0.9  750  269    +35.8       
18 23.06.18 120 (ЮВ) 20000 м    4/0 верхняя 
[Ci fib]
+26.9 +6.2 27 +27  1006.8  0.2  750  274           
21 23.06.18 080 (В) 20000 м    8/0 верхняя 
[Ci fib]
+24.6 +16.5 61 +36  1007.4  0.8  751  274           
00 24.06.18 тихо ()   20000 м    6/6 600 м кучево-дожд. 
[Cb cap]
+20.3 +15 72 +29  1007.8  0.1  751  278           
03 24.06.18 210 (ЮЗ) 20000 м    9/6 600 м кучево-дожд., средняя 
[Cb cap|Ac As]
+22.1 +17 73 +34  1008.5  0.7  751  276  +19.7        сухая 
06 24.06.18 190 (Ю) 20000 м    10/8 600 м кучево-дожд., средняя 
[Cb cap|Ac As]
+23.7 +16.5 64 +35  1009.7  1.2  752  275           
09 24.06.18 210 (ЮЗ) 5{11}  20000 м    9/8 600 м кучево-дожд., средняя 
[Cb cap|Ac trans]
+25 +17 61 +37  1010.9  1.2  753  274           
12 24.06.18 260 (З) 5{10}  20000 м    9/8 600 м кучево-дожд., средняя, верхняя 
[Cb cap|Ac trans|Ci fib]
+24.7 +15.3 56 +34  1012  1.1  754  275           
15 24.06.18 300 (СЗ) 10 км  гроза, ливневой дождь  10/10 600 м кучево-дожд. 
[Cb cap]
+20.3 +17.7 85 +34  1013.1  755  279    +27.8     
18 24.06.18 290 (З) 10 км  {гроза, ливн. осадки}  3/0 средняя, верхняя 
[Ac trans|Ci fib]
+21.1 +18.3 84 +36  1014.6  1.6  756  279           
21 24.06.18 300 (СЗ) 20000 м    ясно 
+18.1 +14.9 82 +27  1016  1.3  757  283           
Время (UTC), дата Ветер
(°,м/с) 
Видим.   Явления Облачность Т
(°С)
Тd
(°С)
f(%) Тe
(°С)
Pmin
(гПа)
dP
(гПа)
Po
(мм)
O2
(г/м3)
Тmin Tmax R s Состояние
почвы

Для получения пояснительной информации подведите курсор к названию столбца.

ПОГОДА Каменск-Шахтинский - архив

Всё, что Вы хотите узнать о погоде Каменск-Шахтинский - удобно и подробно!

Выберите нужную дату (начиная с 1 января 2015* года) и нажмите кнопку "Найти".
Будут отображены архивные сводки погоды по пункту Каменск-Шахтинский, начиная с указанной даты.


Отображать данные в формате CSV (для использования в таблицах Excel)


Внимание! Наш архив погоды предназначен исключительно для личного некоммерческого использования в познавательных целях. Если Вам необходимы официальные справки о состоянии погоды (для производственных, юридических, коммерческих и т.п. целей), обращайтесь в органы Росгидромета.

*Примечание: данная дата относится к архиву по метеостанциям СССР (Россия, СНГ, Балтия).
Архив по метеостанциям Зарубежной Европы и Азии (кроме Китая) хранится 10 дней, по другим регионам земного шара (Китай, Африка, Америка, Австралия, Океания) - 1 день.

Каменск-Шахтинский - район местоположения метеостанции


Название, широта, долгота, высота метеостанции:
Каменск-Шахтинский 48.3°ш. 40.3°д. 51 м над ур. моря [Российская Федерация]

Дополнительная информация

В oтличие oт бoльшинства пoгoдных сайтoв мы публикуем пoдрoбную метеoинфoрмацию в детальнoм прoфессиoнальнoм фoрмате.

Характеристики температуры и влажнoсти вoздуха измеряются на высoте 2 м в тени вдали oт зданий и деревьев.
Скoрoсть ветра измеряется на высoте 10 м (на урoвне рoста челoвека скoрoсть ветра ниже в 1.5-2 раза). Если метеoстанция нахoдится в гoрoде или в лесу, тo скoрoсть ветра занижена на 2-4 м/с пo сравнению с oткрытым местoм. Скoрoсть ветра над акватoриями крупных рек и oзёр, а также на вершинах хoлмoв на 2-5 м/с выше, чем в oбычных услoвиях.
Атмoсфернoе давление в разных тoчках местнoсти мoжет значительнo oтличаться oт давления на метеoстанции, в зависимoсти oт услoвий рельефа (при пoдъёме на 10 м давление пoнижается примернo на 1 мм рт.ст.).